[[{"header":{"parameterUnit":"m.s-1","parameterCategory":1,"la1":30.2991,"la2":30.254,"lo1":-89.0895,"lo2":-89.0444,"dy":0.0017,"dx":0.0017,"nx":28,"ny":28,"refTime":"2025-04-28T21:00:00:Z","depth":0,"parameterNumber":2,"parameterNumberName":"U-component_of_WINDS"},"data":[0,0,0,0,0,0,0,0,0,0,0,0,0,0,0,0,0,0,0,0,0,0,0,0,0,0,0,0,0,0,0,0,0,0,0,0,0,0,0,0,0,0,0,0,0,0,0,0,0,0,0,0,0,0,0,0,0,0,-3.7172,-3.7172,0,-3.7171,-3.7171,-3.7171,-3.7092,-3.7089,-3.7087,-3.7085,-3.7086,-3.7088,-3.709,0,0,0,0,0,0,0,0,0,0,0,0,0,-3.7108,-3.711,-3.7172,-3.7172,-3.7172,-3.7171,-3.7171,-3.7171,-3.7092,-3.7089,-3.7087,-3.7084,-3.7086,-3.7088,-3.709,0,0,0,0,0,0,0,0,0,0,0,0,0,-3.7125,-3.711,-3.7172,-3.7132,-3.7129,-3.7171,-3.7171,-3.7171,-3.7092,-3.7089,-3.7086,-3.7083,-3.7085,-3.7088,-3.7091,-3.7172,0,0,-3.71,-3.7101,0,0,0,0,0,0,0,0,-3.7124,-3.7127,-3.7138,-3.7135,-3.7131,-3.7128,-3.7149,-3.7172,-3.7093,-3.7106,-3.7085,-3.7082,-3.7103,-3.7104,-3.7111,-3.7172,-3.7172,-3.71,-3.7102,-3.7103,-3.7104,0,0,0,0,0,0,0,-3.7123,-3.7127,-3.7172,-3.7138,-3.7134,-3.7116,-3.7114,-3.7153,-3.7122,-3.7105,-3.7099,-3.71,-3.71,-3.7108,-3.711,-3.7172,-3.71,-3.7103,-3.7104,-3.7106,-3.7302,-3.7305,0,0,0,0,0,0,-3.7127,-3.7126,-3.7172,-3.7172,-3.712,-3.7119,-3.7118,-3.7132,-3.7122,-3.7117,-3.7103,-3.7096,-3.7105,-3.7107,-3.711,-3.7205,-3.7103,-3.7106,-3.7108,-3.7299,-3.7303,-3.7307,0,0,0,0,0,0,-3.7125,-3.7131,-3.7172,-3.7147,-3.7151,-3.7124,-3.7141,-3.7134,-3.7142,-3.712,-3.7114,-3.7116,-3.7102,-3.7106,-3.7158,-3.7204,-3.7107,-3.711,-3.7295,-3.73,-3.7305,-3.7396,0,0,0,0,0,0,-3.7124,-3.7131,-3.7161,-3.7149,-3.7153,-3.7218,-3.7143,-3.7136,-3.7147,-3.7139,-3.7131,-3.7127,-3.71,-3.7154,-3.7161,-3.7206,-3.7112,-3.729,-3.7297,-3.7303,-3.7388,-3.7403,-3.7416,0,0,0,0,0,-3.7122,-3.7186,-3.7163,-3.7169,-3.7189,-3.7221,-3.7223,-3.7191,-3.7151,-3.7181,-3.7168,-3.7127,-3.7199,-3.7159,-3.7167,-3.7214,-3.7287,-3.7295,-3.7303,-3.7382,-3.74,-3.7416,0,0,0,0,0,0,-3.7204,-3.7184,-3.7157,-3.7219,-3.7223,-3.7207,-3.7244,-3.7211,-3.7226,-3.7217,-3.7177,-3.7176,-3.7235,-3.723,-3.7187,-3.7294,-3.7236,-3.7245,-3.7294,-3.7311,-3.7325,-3.7324,-3.7115,0,0,0,0,0,-3.723,-3.7257,-3.7238,-3.7295,-3.7298,-3.7271,-3.7284,-3.7259,-3.7261,-3.7262,-3.7252,-3.7256,-3.7279,-3.7295,-3.7315,-3.7388,-3.7386,-3.7425,-3.7439,-3.745,-3.7459,-3.7498,-3.7516,-3.7332,-3.7332,-3.7332,0,0,-3.7282,-3.7275,-3.7294,-3.7311,-3.731,-3.7341,-3.7272,-3.7306,-3.7329,-3.7267,-3.7314,-3.7308,-3.731,-3.7373,-3.7401,-3.7371,-3.7509,-3.746,-3.747,-3.7471,-3.7508,-3.7526,-3.7541,-3.7337,-3.7336,-3.7335,0,0,-3.7393,-3.739,-3.7437,-3.7439,-3.7439,-3.7422,-3.7434,-3.7424,-3.7417,-3.7465,-3.742,-3.7447,-3.7488,-3.7491,-3.7499,-3.7616,-3.7579,-3.7624,-3.7695,-3.7735,-3.7749,-3.7762,-3.7804,-3.7819,-3.7632,-3.7633,-3.7633,0,-3.7458,-3.7501,-3.7466,-3.7504,-3.7513,-3.746,-3.7509,-3.7512,-3.752,-3.7528,-3.7495,-3.7547,-3.7544,-3.7608,-3.7637,-3.7645,-3.7658,-3.7623,-3.775,-3.7762,-3.7773,-3.7813,-3.7829,-3.7638,-3.7637,-3.7637,-3.7636,0,-3.7581,-3.7612,-3.7651,-3.7659,-3.7673,-3.7717,-3.769,-3.7709,-3.7685,-3.7671,-3.7722,-3.7718,-3.7737,-3.7751,-3.7727,-3.7812,-3.7794,-3.7757,-3.7697,-3.7797,-3.7833,-3.7848,-3.7646,-3.7644,-3.7642,-3.7641,0,0,-3.774,-3.7732,-3.7746,-3.7751,-3.7749,-3.7772,-3.7815,-3.7834,-3.7851,-3.786,-3.7894,-3.7932,-3.7898,-3.7907,-3.7883,-3.7918,-3.8012,-3.7876,-3.7875,-3.7901,-3.8107,-3.8134,-3.8152,-3.7989,-3.7992,-3.7994,-3.8106,0,-3.7847,-3.7917,-3.7889,-3.7962,-3.7991,-3.7942,-3.7979,-3.7984,-3.7973,-3.7997,-3.7986,-3.8014,-3.7966,-3.7972,-3.8004,-3.7993,-3.8052,-3.7985,-3.8021,-3.8023,-3.802,-3.8171,-3.8199,-3.8306,-3.8121,-3.8123,-3.8125,0,-3.798,-3.7994,-3.807,-3.8066,-3.8077,-3.811,-3.8127,-3.815,-3.8155,-3.8145,-3.8157,-3.8127,-3.8169,-3.8113,-3.8172,-3.8127,-3.8141,-3.8138,-3.8142,-3.8142,-3.8078,-3.8175,-3.8339,-3.8354,-3.8147,-3.8145,-3.8143,0,-3.8088,-3.8127,-3.8177,-3.8183,-3.8179,-3.8204,-3.8203,-3.8205,-3.8219,-3.8235,-3.8243,-3.8264,-3.8275,-3.8292,-3.8269,-3.823,-3.8332,-3.8273,-3.8326,-3.8327,-3.8347,-3.8346,-3.8515,-3.8359,-3.8359,-3.8359,-3.8358,0,-3.821,-3.8258,-3.8226,-3.8257,-3.831,-3.828,-3.8334,-3.8328,-3.8331,-3.8361,-3.8322,-3.8352,-3.832,-3.8347,-3.833,-3.8382,-3.8388,-3.8382,-3.8376,-3.8384,-3.8385,-3.8391,-3.8383,-3.8363,-3.8362,-3.8361,-3.836,0,-3.8338,-3.8319,-3.8371,-3.8364,-3.8363,-3.8403,-3.8398,-3.8427,-3.8416,-3.8455,-3.8462,-3.8444,-3.8475,-3.8454,-3.8485,-3.8473,-3.8542,-3.8526,-3.854,-3.8535,-3.8589,-3.8584,-3.8766,-3.8788,-3.862,-3.8621,-3.8623,0,-3.8416,-3.8452,-3.845,-3.8467,-3.8469,-3.8498,-3.8513,-3.8485,-3.8502,-3.8512,-3.8541,-3.8568,-3.8588,-3.8639,-3.8629,-3.8653,-3.8638,-3.87,-3.8641,-3.8649,-3.8638,-3.8636,-3.864,-3.8711,-3.8713,-3.8715,-3.8716,0,-3.8556,-3.8545,-3.8567,-3.8588,-3.8606,-3.8621,-3.8632,-3.8649,-3.8622,-3.8643,-3.8674,-3.869,-3.8722,-3.8749,-3.877,-3.8771,-3.874,-3.8736,-3.8749,-3.8757,-3.8763,-3.876,-3.8571,-3.8731,-3.8729,-3.8728,-3.8728,-3.8727,-3.8661,-3.8691,-3.8695,-3.8722,-3.8728,-3.874,-3.8768,-3.8761,-3.8786,-3.8809,-3.8792,-3.8829,-3.8836,-3.886,-3.8866,-3.8895,-3.887,-3.8889,-3.8894,-3.8899,-3.8906,-3.876,-3.8899,-3.8899,-3.8898,-3.8898,-3.8898,0,-3.8798,-3.8799,-3.8825,-3.8842,-3.8864,-3.8834,-3.8846,-3.8866,-3.8899,-3.8908,-3.8929,-3.8966,-3.8993,-3.8987,-3.9013,-3.9038,-3.9024,-3.9045,-3.9042,-3.9043,-3.8927,-3.8913,-3.9056,-3.9056,-3.9056,-3.9056,-3.9056,-3.9056,-3.8872,-3.8923,-3.8913,-3.8967,-3.8968,-3.9003,-3.9013,-3.9025,-3.9032,-3.9074,-3.9097,-3.9094,-3.9097,-3.9123,-3.9148,-3.9146,-3.9157,-3.9183,-3.9176,-3.9067,-3.9051,-3.9036,-3.9022,-3.9186,-3.9186,-3.9289,-3.929,-3.929]},{"header":{"parameterUnit":"m.s-1","parameterCategory":1,"la1":30.2991,"la2":30.254,"lo1":-89.0895,"lo2":-89.0444,"dy":0.0017,"dx":0.0017,"nx":28,"ny":28,"refTime":"2025-04-28T21:00:00:Z","depth":0,"parameterNumber":3,"parameterNumberName":"V-component_of_WINDS"},"data":[0,0,0,0,0,0,0,0,0,0,0,0,0,0,0,0,0,0,0,0,0,0,0,0,0,0,0,0,0,0,0,0,0,0,0,0,0,0,0,0,0,0,0,0,0,0,0,0,0,0,0,0,0,0,0,0,0,0,2.3628,2.3628,0,2.3639,2.364,2.364,2.3713,2.3715,2.3717,2.3718,2.3724,2.3722,2.3721,0,0,0,0,0,0,0,0,0,0,0,0,0,2.3665,2.3664,2.3628,2.3628,2.3628,2.3639,2.364,2.364,2.3713,2.3715,2.3717,2.3719,2.3724,2.3722,2.3721,0,0,0,0,0,0,0,0,0,0,0,0,0,2.3659,2.3663,2.3628,2.3666,2.367,2.3639,2.364,2.364,2.3712,2.3715,2.3718,2.372,2.3725,2.3723,2.372,2.3652,0,0,2.3713,2.3712,0,0,0,0,0,0,0,0,2.366,2.3658,2.366,2.3664,2.3667,2.3678,2.3655,2.3644,2.3712,2.3696,2.3718,2.3722,2.3706,2.3705,2.3701,2.3652,2.3653,2.3713,2.3712,2.3711,2.371,0,0,0,0,0,0,0,2.366,2.3658,2.3632,2.366,2.3665,2.3681,2.3683,2.3653,2.3685,2.3697,2.3703,2.3704,2.3708,2.3703,2.3702,2.3653,2.3713,2.3711,2.371,2.3709,2.3549,2.3546,0,0,0,0,0,0,2.3656,2.3658,2.3632,2.3633,2.367,2.3678,2.3681,2.3672,2.3686,2.3691,2.3701,2.3707,2.3706,2.3705,2.3702,2.3624,2.3711,2.3709,2.3707,2.3551,2.3548,2.3545,0,0,0,0,0,0,2.3656,2.3653,2.3632,2.3647,2.3645,2.3675,2.3664,2.367,2.3666,2.3689,2.3695,2.3691,2.3708,2.3706,2.3665,2.3625,2.3708,2.3705,2.3555,2.355,2.3546,2.3465,0,0,0,0,0,0,2.3657,2.3652,2.3628,2.3646,2.3644,2.3595,2.3661,2.3669,2.3662,2.367,2.368,2.3685,2.371,2.3668,2.3662,2.3623,2.3704,2.3559,2.3553,2.3548,2.3471,2.3458,2.3447,0,0,0,0,0,2.3658,2.3603,2.3626,2.3623,2.3614,2.3592,2.3591,2.3623,2.3659,2.3633,2.3649,2.3684,2.363,2.3663,2.3657,2.3617,2.3561,2.3554,2.3548,2.3477,2.3461,2.3447,0,0,0,0,0,0,2.3577,2.3606,2.3632,2.3582,2.3584,2.3605,2.3574,2.3606,2.3596,2.3604,2.3642,2.3644,2.3597,2.3603,2.3639,2.3552,2.3602,2.3594,2.3549,2.3534,2.3523,2.3521,2.3702,0,0,0,0,0,2.3554,2.3535,2.3561,2.3514,2.3514,2.3544,2.3535,2.356,2.3563,2.3564,2.3576,2.3576,2.356,2.3548,2.3534,2.3473,2.3476,2.3442,2.343,2.3421,2.3413,2.3381,2.3366,2.3524,2.3524,2.3524,0,0,2.3505,2.3518,2.3504,2.3498,2.3503,2.3481,2.3544,2.3518,2.3502,2.3559,2.3522,2.3531,2.3534,2.3483,2.3461,2.3486,2.337,2.3412,2.3404,2.3402,2.3373,2.3358,2.3344,2.3519,2.352,2.3521,0,0,2.3404,2.3413,2.3375,2.3379,2.3387,2.3407,2.3398,2.3414,2.3423,2.3386,2.3429,2.341,2.338,2.3381,2.3377,2.3278,2.331,2.3272,2.3209,2.3177,2.3165,2.3154,2.3118,2.3105,2.3265,2.3265,2.3264,0,2.3341,2.3312,2.335,2.3323,2.3318,2.3372,2.3333,2.3335,2.3336,2.3331,2.3361,2.3326,2.3331,2.3281,2.3257,2.3253,2.3242,2.327,2.3164,2.3154,2.3144,2.311,2.3096,2.326,2.326,2.3261,2.3261,0,2.3234,2.3213,2.3181,2.3184,2.3177,2.3143,2.3175,2.3162,2.3188,2.3205,2.3166,2.3176,2.3164,2.3155,2.3178,2.3108,2.3123,2.3158,2.3209,2.3124,2.3092,2.308,2.3253,2.3255,2.3256,2.3257,0,0,2.3081,2.3107,2.3095,2.3097,2.311,2.3094,2.3062,2.3054,2.3041,2.3041,2.3015,2.2989,2.3022,2.3017,2.3042,2.3015,2.2935,2.3053,2.3053,2.303,2.2857,2.283,2.2814,2.2957,2.2955,2.2953,2.2856,0,2.2984,2.2934,2.2968,2.2911,2.2892,2.2944,2.2916,2.292,2.2935,2.292,2.2936,2.2917,2.2962,2.296,2.2935,2.295,2.29,2.2958,2.2931,2.293,2.2928,2.2798,2.2769,2.2677,2.2844,2.2842,2.2841,0,2.2864,2.2861,2.2802,2.282,2.2813,2.2788,2.2783,2.2768,2.2774,2.2787,2.2783,2.2815,2.2784,2.2835,2.2792,2.283,2.2822,2.2828,2.2825,2.2822,2.2879,2.279,2.2649,2.2634,2.2822,2.2823,2.2825,0,2.2757,2.2738,2.2701,2.2701,2.2721,2.2702,2.2709,2.2718,2.271,2.2706,2.2701,2.2692,2.2686,2.2678,2.2706,2.2741,2.2659,2.2713,2.2667,2.2666,2.2646,2.2646,2.2499,2.2642,2.2642,2.2643,2.2643,0,2.2644,2.2606,2.2654,2.263,2.2589,2.2629,2.2586,2.2598,2.2606,2.2585,2.2629,2.2608,2.2647,2.2629,2.2651,2.2612,2.2609,2.2617,2.2623,2.2613,2.2611,2.2606,2.2613,2.2639,2.264,2.2641,2.2641,0,2.2517,2.2548,2.2511,2.2533,2.2538,2.2507,2.2525,2.2504,2.2523,2.2496,2.2492,2.2521,2.2502,2.253,2.2515,2.2529,2.2475,2.2491,2.2473,2.2478,2.243,2.2434,2.2273,2.2254,2.241,2.2409,2.2407,0,2.2443,2.2416,2.2436,2.2426,2.2431,2.2415,2.2408,2.2446,2.2437,2.2442,2.242,2.2406,2.2397,2.2365,2.2384,2.2372,2.2387,2.2332,2.2386,2.2376,2.2385,2.2386,2.2383,2.232,2.2318,2.2317,2.2316,0,2.2307,2.2324,2.2314,2.2309,2.2301,2.2298,2.2299,2.2288,2.2328,2.2315,2.2298,2.2291,2.2277,2.2262,2.2255,2.2261,2.2294,2.2299,2.2288,2.2276,2.2266,2.227,2.2442,2.2302,2.2303,2.2304,2.2305,2.2306,2.2204,2.2182,2.2193,2.2181,2.2186,2.2185,2.2167,2.2184,2.2172,2.2164,2.2187,2.2164,2.2171,2.2166,2.2168,2.215,2.2174,2.2157,2.2153,2.2148,2.214,2.2271,2.2148,2.2149,2.2149,2.215,2.215,0,2.207,2.208,2.2068,2.2069,2.2059,2.2094,2.2096,2.2085,2.2065,2.207,2.206,2.2041,2.2027,2.2045,2.2034,2.2016,2.2031,2.2012,2.2012,2.2013,2.212,2.213,2.2,2.2,2.2,2.2,2.2,2.2,2.1999,2.1964,2.1982,2.1949,2.1959,2.1939,2.1937,2.1937,2.1941,2.1918,2.1907,2.192,2.1929,2.1919,2.1908,2.1913,2.1907,2.1882,2.1892,2.1991,2.2006,2.202,2.203,2.188,2.188,2.1787,2.1786,2.1786]}]]